Torna al catalogo

STARLINK-37569

AttivoComunicazioniVLEO
NORAD 69836·PAYLOAD·🇺🇸 United States

Lanciato Jul 5, 2026 da Cape Canaveral Space Force Station

Loading…

Prossimi Passaggi (prossime 24 ore)

TLE

AggiornatoSource: CelesTrak SupGP

Epoca: Sep 15, 2026, 03:26 UTC

1 69836C 26154T   26258.14354167  .00068260  00000+0  20172-2 0  2587
2 69836  53.1582 356.5573 0001184  94.1263  87.7120 15.34350090    17

Traccia STARLINK-37569 in tempo reale con AllMySat

Download on the App Store